Retour au catalogue

OBJECT F

ActifSSO
NORAD 100134·UNKNOWN·🇨🇳 China

Lancé Jul 22, 2026 depuis Yellow Sea Launch Area

Loading…

Prochains Passages (prochaines 24 heures)

TLE

FraisSource: Space-Track

Époque: Sep 14, 2026, 04:30 UTC

1 A0134U 26168F   26257.18803865  .00002849  00000-0  18016-3 0  9994
2 A0134  97.5409 338.0403 0020526 143.9404 216.3214 15.09651722  8167

Suivez OBJECT F en temps réel avec AllMySat

Download on the App Store